LNR011 KEWR-KDCA

Flight info

Callsign LNR011
Flight time 0h 45m
Altitude 34000
Route BIGGY Q75 MXE CLIPR3
Aircraft A319/M-SDE3FGHIRWY/LB1

Departure

Time 2026-04-24 15:00
Airport Newark Liberty International Airport (KEWR)

Arrival

Time 2026-04-24 15:46
Airport Ronald Reagan Washington National Airport (KDCA)
Time Latitude Longitude Altitude Speed Heading
2026-04-24 14:32 40.69600 -74.17348 23 ft 0 kts 142°
2026-04-24 14:32 40.69602 -74.17350 23 ft 0 kts 142°
2026-04-24 14:33 0.00000 0.00000 1114 ft 0 kts 355°
2026-04-24 14:34 40.69600 -74.17348 23 ft 0 kts 142°
2026-04-24 14:46 40.69610 -74.17358 22 ft 4 kts 142°
2026-04-24 14:46 40.69631 -74.17379 23 ft 4 kts 142°
2026-04-24 14:46 40.69648 -74.17396 22 ft 4 kts 133°
2026-04-24 14:46 40.69657 -74.17418 22 ft 4 kts 53°
2026-04-24 14:47 40.69645 -74.17433 23 ft 4 kts 41°
2026-04-24 14:47 40.69639 -74.17440 25 ft 0 kts 41°
2026-04-24 14:51 40.69642 -74.17437 25 ft 2 kts 40°
2026-04-24 14:51 40.69668 -74.17408 23 ft 8 kts 41°
2026-04-24 14:52 40.69711 -74.17351 22 ft 9 kts 62°
2026-04-24 14:52 40.69720 -74.17266 22 ft 7 kts 71°
2026-04-24 14:52 40.69726 -74.17195 22 ft 9 kts 117°
2026-04-24 14:52 40.69668 -74.17147 24 ft 11 kts 154°
2026-04-24 14:53 40.69590 -74.17105 22 ft 13 kts 161°
2026-04-24 14:53 40.69499 -74.17078 22 ft 14 kts 173°
2026-04-24 14:53 40.69396 -74.17073 22 ft 15 kts 185°
2026-04-24 14:53 40.69291 -74.17111 22 ft 15 kts 206°
2026-04-24 14:54 40.69201 -74.17171 22 ft 15 kts 206°
2026-04-24 14:54 40.69113 -74.17226 22 ft 13 kts 205°
2026-04-24 14:54 40.69037 -74.17273 22 ft 12 kts 205°
2026-04-24 14:54 40.68957 -74.17322 22 ft 13 kts 205°
2026-04-24 14:55 40.68902 -74.17360 22 ft 14 kts 207°
2026-04-24 14:55 40.68803 -74.17424 22 ft 9 kts 205°
2026-04-24 14:55 40.68743 -74.17460 23 ft 10 kts 205°
2026-04-24 14:55 40.68676 -74.17502 23 ft 11 kts 206°
2026-04-24 14:56 40.68602 -74.17550 23 ft 12 kts 206°
2026-04-24 14:56 40.68520 -74.17602 23 ft 14 kts 206°
2026-04-24 14:56 40.68433 -74.17658 23 ft 15 kts 205°
2026-04-24 14:56 40.68336 -74.17720 24 ft 16 kts 205°
2026-04-24 14:57 40.68231 -74.17786 22 ft 17 kts 205°
2026-04-24 14:57 40.68132 -74.17848 22 ft 15 kts 206°
2026-04-24 14:57 40.68064 -74.17892 22 ft 11 kts 206°
2026-04-24 14:57 40.67990 -74.17939 24 ft 12 kts 206°
2026-04-24 14:58 40.67937 -74.17973 22 ft 13 kts 206°
2026-04-24 14:58 40.67851 -74.18027 22 ft 14 kts 206°
2026-04-24 14:58 40.67758 -74.18087 23 ft 15 kts 206°
2026-04-24 14:58 40.67656 -74.18126 23 ft 16 kts 161°
2026-04-24 14:59 40.67602 -74.18052 24 ft 6 kts 129°
2026-04-24 14:59 40.67573 -74.18004 22 ft 8 kts 124°
2026-04-24 14:59 40.67578 -74.17920 24 ft 12 kts 41°
2026-04-24 14:59 40.67747 -74.17811 22 ft 62 kts 26°
2026-04-24 15:00 40.68393 -74.17403 24 ft 140 kts 26°
2026-04-24 15:00 40.69379 -74.16785 457 ft 163 kts 25°
2026-04-24 15:00 40.70369 -74.16060 1320 ft 165 kts 35°
2026-04-24 15:00 40.71274 -74.15019 2011 ft 185 kts 40°
2026-04-24 15:01 40.72315 -74.13829 2329 ft 207 kts 31°
2026-04-24 15:01 40.73732 -74.13213 2918 ft 221 kts
2026-04-24 15:01 40.75254 -74.13525 3587 ft 224 kts 339°
2026-04-24 15:01 40.76664 -74.14563 4289 ft 241 kts 320°
2026-04-24 15:02 40.77566 -74.16391 5031 ft 245 kts 291°
2026-04-24 15:02 40.77627 -74.18673 5801 ft 259 kts 265°
2026-04-24 15:02 40.77070 -74.20957 6548 ft 263 kts 258°
2026-04-24 15:02 40.76417 -74.23218 7296 ft 263 kts 258°
2026-04-24 15:03 40.75744 -74.25470 8059 ft 264 kts 258°
2026-04-24 15:03 40.75057 -74.27710 8816 ft 264 kts 257°
2026-04-24 15:03 40.74354 -74.29955 9601 ft 265 kts 258°
2026-04-24 15:03 40.73645 -74.32213 9914 ft 268 kts 257°
2026-04-24 15:04 40.72740 -74.34407 10155 ft 289 kts 249°
2026-04-24 15:04 40.71655 -74.36736 10783 ft 305 kts 247°
2026-04-24 15:04 40.70490 -74.39123 11647 ft 313 kts 245°
2026-04-24 15:04 40.69291 -74.41538 12601 ft 317 kts 245°
2026-04-24 15:05 40.68068 -74.44004 13534 ft 321 kts 245°
2026-04-24 15:05 40.66833 -74.46503 14365 ft 325 kts 245°
2026-04-24 15:05 40.65601 -74.49013 15207 ft 328 kts 245°
2026-04-24 15:05 40.64365 -74.51549 16073 ft 330 kts 245°
2026-04-24 15:06 40.63120 -74.54106 16932 ft 333 kts 245°
2026-04-24 15:06 40.61865 -74.56680 17777 ft 335 kts 245°
2026-04-24 15:06 40.60600 -74.59272 18566 ft 338 kts 245°
2026-04-24 15:06 40.59322 -74.61889 19243 ft 342 kts 245°
2026-04-24 15:07 40.58025 -74.64547 19906 ft 347 kts 245°
2026-04-24 15:07 40.56711 -74.67237 20573 ft 352 kts 245°
2026-04-24 15:07 40.55382 -74.69962 21220 ft 357 kts 245°
2026-04-24 15:07 40.54037 -74.72724 21850 ft 361 kts 245°
2026-04-24 15:08 40.52671 -74.75526 22485 ft 367 kts 245°
2026-04-24 15:08 40.51281 -74.78369 23118 ft 372 kts 245°
2026-04-24 15:08 40.49870 -74.81244 23698 ft 377 kts 245°
2026-04-24 15:08 40.48442 -74.84148 24240 ft 381 kts 245°
2026-04-24 15:09 40.46993 -74.87087 24797 ft 384 kts 245°
2026-04-24 15:09 40.45531 -74.90043 25326 ft 388 kts 244°
2026-04-24 15:09 40.44054 -74.93023 25848 ft 391 kts 245°
2026-04-24 15:09 40.42565 -74.96027 26358 ft 395 kts 244°
2026-04-24 15:10 40.40826 -74.98893 26868 ft 407 kts 235°
2026-04-24 15:10 40.38889 -75.01626 27364 ft 411 kts 234°
2026-04-24 15:10 40.36928 -75.04379 27836 ft 414 kts 234°
2026-04-24 15:10 40.34949 -75.07149 28311 ft 418 kts 234°
2026-04-24 15:11 40.32957 -75.09939 28768 ft 421 kts 234°
2026-04-24 15:11 40.30951 -75.12750 29238 ft 425 kts 234°
2026-04-24 15:11 40.28923 -75.15585 29689 ft 428 kts 234°
2026-04-24 15:11 40.26875 -75.18444 30131 ft 431 kts 234°
2026-04-24 15:12 40.24819 -75.21316 30517 ft 434 kts 234°
2026-04-24 15:12 40.20685 -75.27088 30827 ft 429 kts 234°
2026-04-24 15:12 40.18666 -75.29881 30568 ft 417 kts 233°
2026-04-24 15:13 40.16701 -75.32592 30325 ft 405 kts 233°
2026-04-24 15:13 40.14787 -75.35237 30087 ft 397 kts 234°
2026-04-24 15:13 40.12904 -75.37850 29824 ft 392 kts 234°
2026-04-24 15:13 40.11047 -75.40437 29543 ft 390 kts 234°
2026-04-24 15:14 40.09197 -75.43013 29233 ft 388 kts 233°
2026-04-24 15:14 40.07353 -75.45582 28969 ft 387 kts 234°
2026-04-24 15:14 40.05515 -75.48140 28697 ft 385 kts 234°
2026-04-24 15:14 40.03685 -75.50685 28430 ft 384 kts 234°
2026-04-24 15:15 40.01859 -75.53215 28162 ft 382 kts 233°
2026-04-24 15:15 40.00040 -75.55723 27888 ft 377 kts 233°
2026-04-24 15:15 39.98250 -75.58186 27478 ft 373 kts 233°
2026-04-24 15:15 39.96473 -75.60632 27059 ft 369 kts 233°
2026-04-24 15:16 39.94715 -75.63055 26630 ft 366 kts 233°
2026-04-24 15:16 39.92969 -75.65462 26192 ft 363 kts 233°
2026-04-24 15:16 39.91348 -75.67938 25756 ft 354 kts 242°
2026-04-24 15:16 39.89973 -75.70581 25309 ft 351 kts 243°
2026-04-24 15:17 39.88613 -75.73199 24854 ft 348 kts 243°
2026-04-24 15:17 39.87255 -75.75804 24395 ft 346 kts 243°
2026-04-24 15:17 39.85904 -75.78396 23931 ft 345 kts 243°
2026-04-24 15:17 39.84563 -75.80971 23475 ft 343 kts 243°
2026-04-24 15:18 39.83226 -75.83536 22958 ft 341 kts 243°
2026-04-24 15:18 39.81898 -75.86083 22511 ft 338 kts 242°
2026-04-24 15:18 39.80586 -75.88600 22073 ft 335 kts 242°
2026-04-24 15:18 39.79282 -75.91097 21640 ft 332 kts 242°
2026-04-24 15:19 39.77991 -75.93566 21211 ft 329 kts 242°
2026-04-24 15:19 39.76706 -75.96019 20783 ft 327 kts 242°
2026-04-24 15:19 39.75432 -75.98451 20359 ft 325 kts 242°
2026-04-24 15:19 39.74162 -76.00872 19942 ft 323 kts 242°
2026-04-24 15:20 39.72901 -76.03275 19518 ft 321 kts 242°
2026-04-24 15:20 39.71643 -76.05662 19107 ft 320 kts 241°
2026-04-24 15:20 39.70384 -76.08044 18696 ft 319 kts 241°
2026-04-24 15:20 39.69134 -76.10421 18285 ft 318 kts 241°
2026-04-24 15:21 39.67891 -76.12785 17834 ft 317 kts 241°
2026-04-24 15:21 39.66650 -76.15138 17417 ft 314 kts 240°
2026-04-24 15:21 39.65419 -76.17465 17027 ft 311 kts 240°
2026-04-24 15:21 39.64196 -76.19774 16629 ft 309 kts 240°
2026-04-24 15:22 39.62982 -76.22070 16254 ft 307 kts 240°
2026-04-24 15:22 39.61791 -76.24325 15877 ft 306 kts 239°
2026-04-24 15:22 39.60590 -76.26601 15499 ft 305 kts 239°
2026-04-24 15:23 39.57870 -76.30816 14745 ft 310 kts 222°
2026-04-24 15:23 39.54287 -76.33953 13974 ft 310 kts 218°
2026-04-24 15:23 39.52491 -76.35507 13579 ft 310 kts 218°
2026-04-24 15:24 39.47170 -76.40130 12449 ft 303 kts 218°
2026-04-24 15:25 39.44276 -76.42645 11915 ft 296 kts 218°
2026-04-24 15:25 39.40302 -76.46099 11695 ft 296 kts 218°
2026-04-24 15:26 39.35155 -76.50566 11349 ft 295 kts 217°
2026-04-24 15:27 39.30039 -76.54983 10984 ft 294 kts 217°
2026-04-24 15:27 39.24969 -76.59362 10580 ft 292 kts 217°
2026-04-24 15:28 39.18232 -76.65151 10109 ft 290 kts 218°
2026-04-24 15:29 39.15156 -76.68433 9845 ft 286 kts 227°
2026-04-24 15:30 39.10786 -76.73627 9419 ft 285 kts 226°
2026-04-24 15:31 39.05439 -76.79941 8924 ft 284 kts 227°
2026-04-24 15:32 38.99134 -76.87394 8329 ft 283 kts 227°
2026-04-24 15:33 38.93521 -76.93235 7837 ft 289 kts 208°
2026-04-24 15:33 38.87452 -76.94165 7398 ft 297 kts 184°
2026-04-24 15:34 38.83319 -76.94297 7108 ft 297 kts 184°
2026-04-24 15:35 38.77091 -76.94384 6680 ft 298 kts 177°
2026-04-24 15:35 38.72956 -76.93970 6390 ft 298 kts 178°
2026-04-24 15:35 38.70886 -76.93772 6255 ft 298 kts 178°
2026-04-24 15:36 38.68825 -76.93574 6113 ft 297 kts 178°
2026-04-24 15:36 38.64708 -76.93195 5765 ft 295 kts 178°
2026-04-24 15:36 38.62659 -76.93013 5386 ft 294 kts 178°
2026-04-24 15:37 38.60645 -76.92834 5003 ft 285 kts 177°
2026-04-24 15:37 38.58721 -76.92766 4632 ft 269 kts 189°
2026-04-24 15:37 38.56995 -76.93429 4279 ft 252 kts 213°
2026-04-24 15:37 38.55695 -76.94710 4127 ft 228 kts 234°
2026-04-24 15:38 38.54944 -76.96357 3999 ft 206 kts 258°
2026-04-24 15:38 38.54789 -76.98108 3958 ft 195 kts 281°
2026-04-24 15:38 38.55164 -76.99724 3910 ft 188 kts 302°
2026-04-24 15:38 38.55977 -77.01011 3884 ft 187 kts 322°
2026-04-24 15:39 38.57094 -77.01813 3829 ft 185 kts 342°
2026-04-24 15:39 38.58367 -77.02037 3785 ft 186 kts 359°
2026-04-24 15:39 38.59660 -77.02030 3753 ft 186 kts 359°
2026-04-24 15:39 38.60957 -77.02033 3714 ft 187 kts 358°
2026-04-24 15:40 38.62254 -77.02038 3667 ft 186 kts 358°
2026-04-24 15:40 38.63548 -77.02044 3637 ft 187 kts 357°
2026-04-24 15:40 38.64860 -77.02043 3586 ft 188 kts 360°
2026-04-24 15:40 38.66163 -77.01978 3438 ft 186 kts 358°
2026-04-24 15:41 38.67453 -77.02028 3196 ft 185 kts 354°
2026-04-24 15:41 38.68719 -77.02120 3042 ft 178 kts 355°
2026-04-24 15:41 38.69927 -77.02216 2851 ft 172 kts 353°
2026-04-24 15:41 38.71100 -77.02322 2592 ft 165 kts 352°
2026-04-24 15:42 38.72208 -77.02452 2357 ft 149 kts 351°
2026-04-24 15:42 38.73178 -77.02569 2174 ft 133 kts 351°
2026-04-24 15:42 38.74066 -77.02647 2007 ft 123 kts 352°
2026-04-24 15:42 38.74917 -77.02720 1782 ft 123 kts 353°
2026-04-24 15:43 38.75761 -77.02831 1592 ft 123 kts 352°
2026-04-24 15:43 38.76595 -77.02968 1407 ft 123 kts 353°
2026-04-24 15:43 38.77442 -77.03046 1305 ft 121 kts 353°
2026-04-24 15:43 38.78283 -77.03089 1189 ft 120 kts 354°
2026-04-24 15:44 38.79121 -77.03177 1067 ft 121 kts 351°
2026-04-24 15:44 38.79967 -77.03287 885 ft 122 kts 354°
2026-04-24 15:44 38.80817 -77.03355 747 ft 126 kts 355°
2026-04-24 15:44 38.81680 -77.03446 504 ft 123 kts 358°
2026-04-24 15:45 38.82527 -77.03537 373 ft 122 kts 358°
2026-04-24 15:45 38.83373 -77.03613 200 ft 121 kts
2026-04-24 15:45 38.84236 -77.03696 52 ft 124 kts
2026-04-24 15:45 38.85010 -77.03759 28 ft 83 kts 355°
2026-04-24 15:46 38.85297 -77.03792 23 ft 16 kts 355°
2026-04-24 15:46 38.85428 -77.03808 29 ft 20 kts 351°
2026-04-24 15:46 38.85510 -77.03908 25 ft 16 kts 263°
2026-04-24 15:46 38.85493 -77.03940 26 ft 1 kts 219°
2026-04-24 15:47 38.85480 -77.03949 24 ft 3 kts 200°
2026-04-24 15:47 38.85445 -77.03946 24 ft 6 kts 174°
2026-04-24 15:47 38.85395 -77.03940 24 ft 8 kts 175°
2026-04-24 15:47 38.85352 -77.03980 27 ft 9 kts 260°
2026-04-24 15:48 38.85367 -77.04027 24 ft 4 kts 304°
2026-04-24 15:48 38.85371 -77.04036 24 ft 1 kts 304°
2026-04-24 15:48 38.85380 -77.04052 24 ft 3 kts 303°
2026-04-24 15:48 38.85389 -77.04071 25 ft 2 kts 302°
2026-04-24 15:49 38.85391 -77.04075 25 ft 0 kts 302°